Theta_e
348 347 346 346 343 342 338 336 334 325 321 323 329 330 331 331 328 327 327 330 333 329 325 325 328 334 338 337 337 337 337 335 333 333 336 339 340 339 339 339 339 338 336 336 339 338 338 337 338 338 336 336 335 334 335 334 331 330 332 334 333 333 332 332 332 331 332 330 329 329 329 329 329 328 328 330 331 332 333 333 333 334 335 335 337
346 347 346 346 344 341 337 336 334 325 320 324 329 330 331 330 328 330 330 331 333 330 326 326 328 331 333 333 333 333 333 332 332 335 338 340 340 341 341 340 340 340 338 337 339 339 338 338 339 339 339 335 331 332 334 334 333 331 333 334 332 333 331 331 333 332 332 331 330 329 329 329 329 329 328 329 331 332 333 332 333 333 333 334 336
343 347 346 346 344 340 337 336 334 325 320 325 330 331 331 329 328 331 331 330 333 332 328 327 329 331 331 331 331 332 332 331 333 337 340 340 340 341 339 339 340 340 339 339 339 338 337 337 338 340 339 336 334 334 334 334 334 333 334 334 334 334 331 330 330 332 333 332 331 329 329 329 329 329 329 329 330 332 333 333 333 333 333 333 334
342 346 346 345 343 340 337 337 334 325 320 325 330 331 330 329 328 330 329 329 332 332 329 328 329 331 331 331 332 333 334 336 336 338 340 340 341 340 338 337 339 339 339 340 338 337 337 337 337 339 339 336 335 336 335 334 334 332 332 334 336 335 332 332 332 333 334 332 330 328 328 330 329 329 329 329 329 330 331 332 332 332 332 333 332
341 345 346 344 343 340 337 337 336 326 320 325 330 331 330 329 327 327 328 329 332 332 332 330 330 331 332 333 334 337 339 340 338 338 340 341 340 339 339 339 340 339 339 340 338 336 337 337 336 336 337 337 336 336 336 336 335 333 332 333 335 336 335 335 335 334 333 333 331 329 327 328 329 329 329 329 328 328 329 331 331 331 332 332 331
340 345 346 345 343 340 337 337 336 328 321 324 331 331 330 328 326 327 327 328 330 331 331 331 332 333 334 336 338 339 342 342 339 339 340 340 340 339 339 339 339 339 339 339 338 337 336 335 335 333 333 335 336 336 336 336 335 335 335 334 334 336 336 336 336 334 333 332 332 331 327 326 328 329 330 329 328 327 329 330 330 330 330 331 330
338 344 345 345 343 340 338 337 337 330 321 324 330 330 329 327 327 329 330 331 332 331 329 328 330 332 335 338 340 340 342 342 339 340 340 339 339 339 338 338 339 339 339 338 338 338 336 335 333 329 330 331 332 333 334 334 334 334 335 334 334 334 335 335 336 335 331 331 333 332 330 329 328 329 329 329 329 328 328 328 328 329 329 329 329
339 344 345 343 342 340 338 337 338 332 322 323 328 330 329 327 328 332 333 334 334 331 328 326 325 326 331 335 339 340 341 341 340 340 339 339 339 339 339 339 339 339 339 338 338 338 337 335 328 324 327 330 330 332 332 332 333 333 332 333 333 333 334 334 334 334 330 329 331 331 331 331 329 328 328 328 328 329 328 327 327 328 328 328 328
342 344 343 341 341 340 338 338 338 334 324 323 327 328 329 327 329 334 335 336 335 331 327 325 323 324 326 330 335 338 339 340 340 339 339 339 339 339 339 339 339 338 338 338 338 338 337 335 326 319 325 328 330 332 331 332 332 332 332 332 332 333 334 335 335 333 329 329 331 331 331 329 328 328 327 327 327 327 327 326 327 327 328 327 327
341 341 341 340 341 341 340 338 338 337 328 323 327 328 329 327 330 335 336 337 335 331 327 326 325 324 324 327 333 337 338 339 339 339 339 339 339 339 339 339 338 337 338 337 337 337 336 335 325 318 323 326 329 331 332 332 332 332 333 332 333 334 334 335 335 331 328 328 329 329 329 328 326 327 327 328 328 327 327 327 328 328 328 328 328
339 339 341 340 341 341 340 339 339 338 330 324 327 328 329 328 331 336 337 337 335 331 328 328 328 327 327 326 330 335 336 337 337 338 338 338 338 338 337 338 337 337 337 337 337 337 336 334 325 317 322 326 328 331 332 333 332 333 333 333 333 333 333 333 332 329 328 328 327 328 328 327 326 328 328 329 329 329 328 328 328 328 328 328 328
339 340 341 341 341 341 340 339 339 338 330 325 327 329 330 330 332 337 338 337 335 331 329 330 331 331 330 328 329 331 332 332 333 334 335 337 338 337 337 337 336 336 336 337 337 337 336 334 326 318 323 327 329 331 332 333 333 333 332 333 334 333 332 332 331 329 329 328 329 330 330 329 327 328 329 329 329 328 328 328 328 327 327 328 328
340 341 340 341 342 342 340 340 339 338 332 326 327 329 331 331 334 337 339 337 335 331 330 333 334 334 332 330 331 333 332 331 330 329 331 334 336 336 336 336 336 336 336 336 336 336 335 334 328 319 323 328 330 332 333 333 334 333 333 333 335 333 331 332 331 328 329 329 330 331 331 329 328 328 328 329 328 328 328 328 327 327 327 327 327
339 340 340 340 342 342 341 341 340 339 333 327 326 329 332 333 334 337 339 337 334 331 332 334 336 336 335 334 335 336 334 331 330 328 329 330 333 335 335 336 336 335 335 334 334 334 333 333 328 321 323 328 331 333 333 334 334 333 333 334 335 333 332 331 329 327 328 328 328 329 329 328 328 328 327 327 327 327 327 327 327 327 327 326 326
335 338 339 339 343 343 343 342 341 339 333 328 326 329 334 334 335 337 338 337 334 333 335 336 337 337 338 337 337 336 334 333 333 332 330 330 331 332 333 334 334 333 334 333 332 333 333 332 327 322 322 326 328 331 332 334 333 333 334 333 334 333 331 331 329 328 327 327 327 326 327 328 329 328 327 326 327 327 327 327 326 326 326 326 326
332 334 336 339 343 344 344 344 342 339 334 329 327 332 336 336 336 337 338 336 334 334 336 337 338 338 338 338 338 337 334 335 337 335 333 331 331 332 332 333 332 333 333 333 333 333 333 332 328 323 322 325 326 328 331 333 333 334 333 332 334 334 332 332 330 327 327 326 326 326 327 328 329 329 327 325 326 327 327 327 327 326 326 326 326
332 332 336 340 343 344 345 344 342 340 335 331 331 336 337 336 337 338 338 335 334 336 337 338 338 338 338 338 339 338 336 337 337 336 335 333 332 333 333 334 334 334 335 335 333 333 334 333 331 326 322 324 326 327 328 331 334 334 332 333 334 334 333 332 329 326 327 326 325 326 326 328 330 330 327 325 326 327 326 326 326 326 326 326 325
334 334 337 341 343 344 344 344 342 340 337 335 336 338 338 337 338 338 336 333 334 337 338 338 338 338 338 339 339 339 339 338 338 337 336 334 334 333 334 334 334 334 334 334 333 332 333 332 332 328 324 321 323 324 326 330 334 334 332 332 334 334 333 331 328 327 327 326 326 327 326 327 330 330 328 326 326 325 325 324 325 326 326 325 326
338 338 339 342 343 344 344 343 342 340 339 338 339 339 338 338 338 336 334 333 336 338 338 337 337 338 338 339 339 339 339 339 339 337 336 335 334 334 334 333 332 331 330 331 332 332 331 331 330 329 326 322 320 321 324 330 334 333 331 332 334 333 333 331 329 328 327 327 327 327 328 328 329 330 329 327 326 324 323 322 321 322 322 323 323
341 341 341 343 343 344 343 342 342 341 340 339 339 340 339 338 337 334 333 334 337 337 337 336 336 337 337 338 338 338 339 339 338 337 336 334 334 334 332 331 328 327 326 326 328 328 328 329 329 329 329 326 322 322 325 331 333 332 331 332 334 333 332 331 329 328 327 327 327 327 329 330 330 331 329 327 326 324 323 321 317 315 316 319 319
342 342 342 343 344 343 342 343 342 341 341 340 340 340 339 338 335 333 334 336 337 337 336 335 335 336 337 337 337 337 337 338 337 336 335 334 334 333 331 328 325 324 324 323 323 323 324 326 326 327 329 329 327 325 327 331 333 331 330 332 334 334 332 331 329 328 327 327 326 327 328 330 331 331 330 328 327 326 325 323 317 313 314 317 320
343 343 342 343 343 342 342 342 342 341 341 340 340 339 338 336 334 334 336 336 336 336 334 334 334 336 337 336 336 336 336 336 335 335 334 334 333 332 330 326 324 324 323 322 321 322 323 323 324 324 326 329 328 328 329 330 332 330 330 333 335 334 332 330 329 328 327 326 326 327 328 330 331 330 330 330 329 329 327 325 320 314 313 315 319
342 343 343 343 342 342 342 342 342 342 341 340 340 338 337 336 336 335 335 336 335 334 333 334 335 336 337 336 336 336 335 335 334 334 333 333 332 330 329 326 325 325 323 323 322 322 322 323 324 322 324 328 329 329 329 329 331 329 330 334 334 333 331 330 329 327 326 325 326 328 329 330 331 330 331 330 331 330 328 326 321 315 311 313 315
342 342 343 343 342 341 341 341 342 342 341 340 339 339 338 337 336 334 334 335 333 332 332 333 334 336 336 336 336 335 335 334 334 334 332 332 332 330 328 327 325 324 322 323 323 323 322 323 323 322 324 328 329 329 328 328 329 328 330 333 333 332 331 329 328 327 325 324 325 328 330 330 330 330 331 331 332 331 329 327 322 316 312 311 312
341 342 342 342 342 341 341 341 342 342 340 338 339 339 338 337 335 333 334 333 331 331 332 333 334 335 335 335 336 336 335 335 335 334 331 331 331 329 327 325 323 321 323 323 323 325 323 324 325 323 324 327 328 329 329 328 328 329 330 333 333 332 331 329 328 327 325 323 324 327 329 329 330 330 330 331 332 331 330 326 323 320 316 313 311
341 341 342 341 342 341 341 341 341 339 337 337 339 338 337 335 332 332 332 331 331 331 332 333 334 334 334 335 336 336 336 336 336 333 331 330 328 326 325 324 321 322 327 327 326 328 327 328 329 328 328 328 329 331 332 330 330 331 330 332 334 332 330 329 327 327 324 324 325 327 327 328 329 330 330 332 333 331 329 326 324 323 322 318 313
342 341 341 341 341 341 341 341 339 338 336 336 337 335 334 332 331 331 331 331 332 332 332 332 334 335 334 334 334 334 335 337 336 333 330 328 326 325 325 325 323 324 329 331 330 331 330 331 331 331 331 331 332 332 332 332 332 332 330 332 334 332 330 329 327 326 324 326 327 328 327 327 328 329 330 332 332 330 328 327 326 326 326 322 314
340 341 340 340 340 340 340 339 338 337 336 335 334 332 331 331 330 331 331 331 333 332 331 332 334 335 334 334 333 334 335 336 335 332 330 328 326 326 327 328 328 328 329 331 332 332 332 331 332 332 333 333 332 332 332 332 333 332 331 332 333 332 330 328 326 325 325 327 329 329 329 328 328 330 331 332 330 329 328 328 327 326 326 324 318
339 340 340 339 338 338 339 338 337 336 335 333 332 331 331 331 331 332 332 332 332 331 330 331 334 335 334 334 333 333 334 335 334 332 330 328 327 328 330 331 331 330 331 331 332 332 332 332 332 332 333 332 331 331 331 332 333 332 332 333 333 331 330 328 326 325 325 326 328 329 329 329 329 330 331 331 330 330 329 328 328 328 327 325 322
338 339 340 339 338 337 338 338 336 334 334 333 331 331 331 331 333 333 332 332 332 331 330 331 334 334 334 334 334 334 334 334 334 333 331 329 329 329 331 333 333 333 332 332 331 331 331 332 332 332 332 331 330 330 331 332 332 331 332 332 332 331 330 328 324 320 321 325 328 329 329 329 330 331 331 331 330 330 330 328 327 329 328 326 324
338 337 337 339 338 337 337 337 336 335 334 332 330 332 332 332 332 331 332 333 331 331 332 333 334 333 334 334 335 334 334 334 333 332 331 331 331 331 332 334 334 333 333 332 331 331 331 332 332 331 331 330 329 329 331 331 331 331 331 332 332 332 331 328 322 319 321 324 326 328 328 329 330 330 331 331 330 330 330 328 327 328 328 327 325
337 337 337 337 337 338 337 337 336 335 335 333 331 333 333 331 331 329 332 333 330 330 334 334 334 334 334 334 334 334 334 334 333 333 333 332 332 332 332 333 332 332 332 331 331 331 331 331 331 330 329 329 328 328 330 330 330 330 331 331 332 332 332 329 323 320 322 323 323 326 329 329 329 329 329 330 330 331 330 328 328 329 328 328 326
337 337 336 335 336 337 336 336 336 335 335 334 333 334 333 331 329 329 330 332 330 331 334 333 333 334 334 334 334 334 334 334 334 333 333 333 332 332 332 331 332 332 332 331 332 331 331 330 330 329 329 328 327 328 329 330 330 330 331 331 331 331 332 329 324 322 323 323 323 326 328 328 327 327 327 328 329 330 330 330 330 330 329 329 328
337 335 335 335 336 336 334 335 336 334 334 334 334 334 333 331 330 330 330 331 330 331 333 332 333 335 334 334 333 333 334 334 334 333 332 332 332 332 332 332 333 333 332 332 332 331 330 330 329 328 328 328 327 328 329 329 329 329 329 330 331 331 332 330 324 323 326 324 324 327 326 326 326 326 326 327 329 329 329 330 331 331 330 330 330
336 335 336 335 336 336 335 336 335 333 333 334 335 334 332 331 331 332 331 331 332 334 334 334 335 336 335 334 333 333 334 334 334 333 332 332 333 332 332 332 333 333 332 332 332 332 331 330 330 328 328 328 328 329 328 328 328 328 329 329 330 331 331 330 327 328 328 326 324 325 324 325 326 326 326 326 327 328 328 329 329 330 330 330 331
336 336 336 335 335 336 336 336 334 333 334 334 335 333 332 332 332 333 332 331 332 334 335 334 335 334 334 334 333 333 334 334 334 333 333 332 333 333 333 333 333 333 332 331 332 332 331 330 329 328 328 329 329 329 329 329 329 329 330 329 330 331 330 330 330 329 329 328 326 325 324 324 325 326 327 326 326 327 327 328 329 330 329 330 331
337 337 337 336 335 335 336 335 334 334 334 334 334 333 333 333 332 333 332 331 332 334 334 333 334 333 333 333 333 333 333 334 333 333 333 332 333 334 334 333 333 333 332 332 332 332 331 330 329 328 328 329 329 330 329 329 329 329 330 331 331 331 330 330 329 330 330 329 329 328 326 326 325 325 326 326 326 327 328 329 329 330 330 330 330
337 336 336 335 335 335 335 334 334 334 334 334 335 333 333 334 333 333 333 333 334 334 333 333 333 333 333 333 333 333 332 333 333 333 333 333 334 334 334 334 333 332 332 332 332 331 331 329 329 329 329 329 329 329 329 329 329 330 331 331 331 331 330 330 329 329 329 329 330 330 329 328 328 327 327 327 326 326 327 327 328 328 328 329 329
335 335 335 335 335 334 334 334 333 334 334 335 334 334 334 335 335 335 335 336 335 334 333 333 334 334 335 334 334 334 333 334 334 334 334 334 335 334 334 333 332 333 332 332 332 331 331 330 329 330 330 330 329 329 330 330 329 330 331 331 330 330 330 329 329 328 328 329 329 329 329 329 329 329 330 329 329 328 327 327 327 327 327 327 328
334 334 334 334 333 333 333 333 333 334 334 334 334 334 335 336 336 336 336 336 335 334 334 333 334 334 334 335 334 334 335 334 334 334 334 334 334 334 334 333 332 333 332 332 332 332 331 330 329 329 330 331 331 331 330 330 330 330 330 330 330 330 328 328 328 328 328 328 329 328 328 329 329 329 330 330 330 330 329 329 329 328 328 328 328
333 334 334 333 333 332 332 333 334 333 334 334 335 335 335 336 336 337 337 336 334 334 334 333 334 334 334 335 335 335 334 334 334 334 334 334 334 334 333 332 332 333 332 332 332 332 332 330 329 330 330 331 330 331 331 331 330 330 330 330 330 329 328 328 328 329 328 328 328 328 328 328 327 327 328 329 329 329 330 330 329 329 329 329 328
333 334 334 333 333 333 333 334 334 334 334 334 335 335 335 335 335 336 335 333 333 332 333 333 334 334 334 335 335 334 334 334 334 334 334 334 334 333 331 331 332 333 333 333 333 332 332 331 329 330 330 330 330 330 331 331 330 329 328 328 330 329 327 327 328 328 328 328 327 326 326 326 326 326 327 328 328 328 329 330 330 329 329 329 328
334 334 334 333 333 333 333 333 333 334 334 333 333 334 334 333 333 333 332 332 332 332 332 333 334 334 334 334 334 334 334 334 333 333 333 333 334 332 331 332 332 333 333 332 334 333 332 332 330 330 330 331 331 331 331 330 330 329 329 330 331 330 328 326 326 327 327 327 326 325 325 325 325 326 326 327 328 328 329 329 330 330 329 328 327
334 334 335 334 334 333 333 332 332 333 333 333 333 333 333 332 331 330 329 331 332 333 334 333 334 334 333 334 333 333 333 332 332 333 332 333 333 332 332 332 332 332 332 332 333 332 332 332 331 330 330 331 332 331 331 330 329 329 329 330 328 329 331 327 323 323 325 327 325 324 325 325 326 326 325 326 327 328 328 328 329 329 328 327 326
334 334 335 335 334 334 333 332 332 332 332 332 333 332 331 330 329 330 331 332 333 333 334 333 333 333 333 333 332 331 332 332 331 332 332 332 332 332 332 332 331 332 333 332 332 332 332 333 332 331 330 331 331 331 331 330 330 329 329 329 327 331 334 328 321 321 322 325 325 324 324 326 325 325 324 325 326 327 327 327 328 327 326 323 321
334 334 335 336 335 334 334 334 332 332 331 331 330 329 329 329 329 330 331 331 332 333 332 332 332 332 331 331 330 330 330 330 331 331 332 331 331 331 331 331 331 331 332 332 332 333 332 332 332 331 330 330 330 331 330 330 330 329 329 330 329 331 331 326 325 323 320 322 323 324 325 325 325 324 324 325 326 326 326 326 325 324 322 318 315
334 334 335 336 336 335 334 333 332 332 331 329 328 328 328 329 329 330 331 331 331 331 330 329 329 329 329 328 329 328 328 328 328 329 329 329 329 330 330 330 330 330 330 331 332 333 332 332 332 331 330 330 330 331 330 329 330 329 329 330 328 328 327 324 324 323 322 322 321 324 326 324 324 324 325 325 325 325 324 324 323 321 318 313 311
334 334 335 335 335 335 333 331 331 331 329 327 328 329 329 329 329 329 330 329 329 329 328 328 328 328 326 326 326 327 326 326 326 326 327 327 327 328 328 329 330 330 329 329 331 332 332 333 333 331 330 330 330 330 330 329 329 329 329 329 327 327 326 323 321 321 322 322 321 322 324 324 324 324 325 325 324 323 323 323 320 316 311 308 308
334 334 335 335 335 334 332 330 329 328 326 326 326 327 327 327 328 327 326 326 327 328 328 327 328 328 326 326 326 326 326 326 326 325 326 326 326 326 326 327 328 329 329 329 330 332 332 332 331 330 330 329 329 329 329 328 329 329 329 328 327 326 325 322 319 319 320 321 321 320 320 321 322 323 325 324 324 324 322 320 315 309 306 306 307
333 333 334 334 333 332 330 329 328 327 326 324 323 324 324 325 326 325 325 325 326 326 325 324 325 326 327 326 326 325 325 326 326 325 326 325 325 325 325 325 326 327 328 329 330 331 332 331 330 330 330 328 328 329 328 328 328 328 329 328 327 327 325 323 320 319 317 319 320 319 318 318 318 320 324 324 323 322 320 317 312 308 306 305 306
332 332 333 333 332 330 329 328 327 327 325 323 324 325 326 326 325 324 324 324 323 323 323 324 324 325 326 325 325 325 325 326 325 325 325 325 325 325 325 325 325 326 328 328 329 330 331 331 329 329 329 328 328 328 328 328 328 328 329 327 326 326 325 323 320 318 317 317 319 319 317 317 317 318 322 322 320 318 316 314 312 309 305 304 305
Wind_Speed
23 22 23 23 24 26 27 27 25 25 25 26 28 27 27 26 25 24 24 25 25 25 26 27 27 27 26 26 27 26 26 26 25 25 25 24 24 24 24 23 21 20 20 22 22 20 21 21 19 19 20 21 21 21 20 21 20 22 22 22 23 24 22 22 22 20 21 22 22 21 20 20 20 20 19 19 18 17 18 19 20 22 19 17 18
27 25 25 23 25 26 27 27 24 24 25 27 27 27 27 26 25 23 23 24 25 25 26 27 28 28 27 27 27 26 25 25 24 24 24 23 22 22 22 21 20 19 20 22 21 20 21 20 19 18 19 20 21 20 19 20 19 20 21 21 22 23 23 23 22 20 21 22 21 21 21 20 20 19 18 18 18 17 18 19 20 21 19 17 18
30 26 26 25 26 27 28 26 24 24 25 27 26 27 27 26 25 22 22 24 25 25 26 26 27 28 27 27 25 24 24 23 24 24 24 22 22 21 20 19 18 18 20 21 20 20 20 20 19 18 18 18 19 19 18 18 18 19 20 20 20 20 23 25 23 21 19 20 21 22 21 20 20 19 19 18 18 18 19 19 19 19 18 17 17
30 28 27 27 26 27 28 26 24 24 25 26 26 27 26 26 24 22 22 23 24 25 25 25 26 26 26 25 24 23 23 23 24 24 24 22 21 19 19 18 18 18 19 20 18 19 19 19 19 18 17 17 18 18 18 17 17 18 19 19 17 19 22 24 23 20 17 19 22 23 22 21 20 19 18 17 16 17 18 18 18 18 18 17 17
30 29 28 28 27 28 27 26 24 23 25 26 26 26 26 25 23 22 22 22 23 24 24 24 24 25 24 23 23 23 24 23 23 23 23 22 20 18 19 19 19 18 18 18 17 17 18 18 17 17 16 16 17 17 16 16 16 16 16 17 16 16 18 18 20 19 16 17 21 22 22 20 20 18 17 16 16 16 17 17 17 17 17 17 17
31 29 30 29 27 28 27 27 25 24 25 26 26 26 26 24 23 22 22 22 22 22 24 24 23 23 23 22 22 23 24 22 22 23 22 21 19 19 19 18 18 18 18 17 17 16 16 17 16 16 17 16 15 15 15 14 14 14 14 15 15 14 15 13 12 15 15 16 19 20 21 20 20 18 16 16 16 16 15 15 16 16 16 16 16
31 30 30 29 28 29 28 27 25 24 25 26 26 25 25 24 23 22 22 22 21 22 22 23 22 22 21 21 22 23 23 22 22 22 21 20 19 18 17 17 17 17 17 17 16 16 15 16 16 17 18 17 16 15 14 14 13 13 13 12 12 12 12 10 7 12 14 16 18 19 20 20 19 18 17 16 16 15 15 15 15 14 14 15 15
31 31 31 29 29 29 28 27 25 24 24 25 25 25 24 23 23 22 23 22 21 22 22 22 21 21 20 20 21 21 23 23 22 21 21 20 18 17 17 17 17 17 17 16 16 16 15 15 15 17 19 18 18 16 15 14 13 12 12 11 10 8 7 5 7 13 14 15 17 18 19 18 17 17 16 16 16 16 16 15 15 14 14 14 15
31 31 30 30 28 29 29 28 26 24 24 25 25 24 24 23 23 22 22 21 21 21 21 21 21 20 19 20 20 20 21 23 22 21 20 19 18 17 17 17 17 17 16 16 16 15 13 12 14 17 19 19 18 17 15 14 13 12 12 11 11 11 8 6 12 17 15 16 17 17 17 16 17 17 17 16 16 16 16 17 16 15 14 14 14
31 31 31 29 28 29 28 28 27 25 24 25 25 24 23 23 22 21 21 20 20 21 21 21 21 20 19 19 20 20 20 22 22 21 20 19 18 18 18 18 18 17 15 15 13 12 11 11 14 16 18 19 18 17 16 14 13 12 12 12 14 14 14 13 17 18 16 17 16 16 15 17 19 19 17 17 16 16 16 17 17 16 15 14 14
31 31 30 29 28 28 27 27 27 26 25 25 25 24 23 22 22 21 20 20 19 20 20 20 20 19 19 19 19 19 20 20 20 20 19 18 17 17 17 17 17 16 14 13 11 11 10 11 14 16 18 18 18 17 15 14 13 12 13 14 16 17 18 17 18 17 17 18 17 17 16 17 20 19 17 16 17 17 16 16 16 16 15 15 13
30 30 29 28 28 27 26 26 27 26 25 26 25 24 23 22 21 20 19 19 19 19 19 19 19 18 19 19 19 19 19 18 18 18 17 17 16 15 15 15 14 13 12 12 11 11 10 11 13 16 18 18 17 16 15 13 13 13 13 15 16 18 19 18 17 18 18 17 17 17 17 17 18 17 15 16 16 16 16 16 16 15 15 15 14
30 29 28 28 27 26 25 25 27 27 26 26 25 24 23 22 21 19 18 18 18 18 18 18 18 18 18 19 19 18 18 17 16 16 15 15 15 14 14 13 12 11 11 10 10 9 8 9 12 16 18 19 17 16 14 13 13 13 14 15 15 18 18 17 16 17 17 16 17 17 18 18 17 17 16 15 15 15 16 16 16 15 14 14 14
30 28 28 27 26 25 24 25 26 27 26 26 25 24 23 22 21 19 18 18 18 18 17 17 17 17 17 18 18 18 18 17 17 17 16 15 14 14 13 12 11 10 10 9 8 7 7 8 10 15 17 18 17 15 14 12 12 13 14 15 15 18 17 16 16 17 17 16 16 15 16 16 16 16 16 16 15 15 15 15 15 14 13 13 12
30 28 27 26 25 24 23 24 25 26 26 25 25 24 22 22 21 19 18 18 18 18 17 17 16 16 16 16 17 17 18 18 18 17 17 16 15 14 13 12 11 10 10 9 8 7 7 8 10 14 17 15 15 14 12 12 12 12 14 14 14 19 18 16 16 16 17 16 15 14 15 16 15 15 15 15 15 15 15 14 14 13 13 13 12
29 28 26 25 24 23 23 23 24 25 25 24 24 23 22 22 20 18 18 18 17 16 16 16 15 15 15 15 16 16 18 18 18 16 16 16 16 15 13 13 12 11 10 10 9 8 8 8 9 13 15 14 13 13 11 11 11 12 13 13 12 18 18 15 15 16 17 16 14 14 15 16 15 14 14 14 15 15 14 14 13 13 13 13 12
27 27 25 24 23 22 22 22 23 23 23 23 23 23 22 21 19 18 18 17 16 15 14 14 13 14 14 15 15 16 16 16 16 16 15 15 15 14 14 13 12 11 11 10 9 8 9 8 8 10 12 13 12 11 10 10 11 12 13 13 12 16 16 15 15 16 16 14 14 13 14 16 15 13 12 14 15 15 14 13 13 13 13 12 12
26 26 24 22 22 22 21 22 22 22 23 23 23 22 21 21 19 17 17 16 15 14 13 13 12 13 14 14 15 15 16 15 15 15 14 14 14 12 13 13 12 11 10 9 8 8 8 6 7 8 10 12 12 10 9 10 11 12 13 13 14 16 17 15 15 16 15 14 13 13 14 16 15 13 12 13 15 15 14 13 13 13 11 11 10
24 23 23 22 21 21 21 22 22 23 23 23 22 21 21 19 18 17 17 16 15 14 12 12 12 13 14 14 15 16 16 15 15 15 14 14 13 11 11 11 11 10 9 8 7 7 6 5 6 7 8 10 12 10 9 11 11 11 11 11 14 17 16 15 15 15 14 14 13 13 13 15 15 14 13 12 12 14 14 13 13 12 11 10 9
22 22 21 21 21 21 22 22 22 23 23 23 22 21 20 18 18 17 16 15 14 13 13 13 13 13 14 14 15 16 16 16 15 15 14 13 12 10 9 11 10 10 9 7 6 5 5 5 4 5 7 9 11 9 10 12 11 11 9 10 12 16 15 14 14 14 14 13 12 13 13 14 14 13 12 11 10 12 14 13 12 11 11 10 10
21 21 20 21 21 22 22 22 23 23 23 23 22 21 20 19 18 18 16 15 14 14 14 14 13 13 14 15 15 17 17 16 16 15 14 13 11 10 9 10 11 10 9 7 7 6 5 4 3 4 6 8 9 9 10 12 11 10 9 9 11 16 15 14 14 14 14 13 12 12 13 14 14 12 11 10 10 11 12 12 11 11 11 11 11
20 20 20 20 21 22 22 23 23 23 24 23 22 21 20 20 19 18 16 15 15 15 15 15 14 15 14 15 16 16 17 16 15 14 14 13 11 10 9 10 10 9 9 8 7 6 6 5 3 3 5 7 8 9 10 11 11 9 8 8 12 16 16 14 13 13 13 12 12 12 13 14 13 11 11 11 10 10 10 10 10 9 10 11 11
20 20 20 20 21 22 22 23 23 23 24 23 22 22 21 21 20 18 18 17 16 16 16 15 15 16 15 15 16 16 16 15 14 13 13 13 11 11 10 10 9 8 8 8 7 6 5 5 3 3 5 7 7 9 10 10 11 9 8 8 13 16 14 14 13 13 13 12 12 13 13 14 13 11 11 11 10 9 8 9 9 8 9 10 10
20 21 20 19 20 22 22 22 23 23 24 23 22 22 23 22 21 19 19 18 17 17 16 16 16 16 16 16 15 15 15 14 13 12 12 12 12 11 11 10 9 8 8 8 7 6 6 5 4 4 6 7 6 8 9 10 9 7 7 8 12 14 13 13 12 13 12 11 12 13 14 13 11 11 11 10 9 8 8 8 8 8 8 10 10
20 20 20 19 20 21 22 22 22 23 23 22 21 21 23 23 21 20 18 17 17 17 16 16 16 16 16 16 16 16 15 14 14 13 12 13 12 11 9 9 9 8 8 8 8 7 7 7 7 6 6 6 5 6 6 7 6 3 5 8 11 12 11 11 12 11 11 10 11 12 14 14 12 11 9 9 9 8 6 6 7 9 9 10 10
19 19 19 20 21 22 23 22 22 23 23 22 22 22 22 21 20 18 17 17 16 17 17 17 17 16 16 16 16 15 13 13 13 13 13 12 11 10 9 8 8 8 9 9 8 8 8 7 7 7 6 4 3 2 1 2 2 2 2 7 9 12 11 11 11 10 9 10 11 12 12 13 14 10 7 9 9 7 6 6 7 8 9 9 9
18 18 19 20 21 22 22 22 23 24 24 24 23 22 20 19 19 18 17 18 17 17 18 18 17 16 15 15 14 13 13 13 13 14 13 12 10 9 8 8 7 7 8 8 8 7 6 6 5 5 4 2 0 1 2 3 4 4 2 5 9 12 11 11 10 9 10 11 12 12 12 13 14 10 7 10 9 6 6 6 7 6 8 8 8
15 16 17 19 20 21 22 22 23 25 25 25 23 20 18 19 19 19 19 19 17 17 18 18 17 15 14 12 12 12 13 14 14 13 12 11 10 9 8 7 7 6 6 7 6 4 4 4 4 3 2 1 2 2 2 3 3 2 4 6 10 12 10 10 10 10 11 11 12 12 11 13 14 11 9 9 8 7 7 7 5 4 6 7 8
14 13 15 18 19 20 22 22 23 25 25 24 22 19 19 20 21 21 21 19 18 17 18 19 17 14 12 11 11 13 14 14 13 12 10 10 9 8 7 6 6 5 4 4 3 2 3 3 3 1 2 2 2 1 2 5 5 6 6 7 11 12 10 10 10 10 11 12 12 11 11 12 13 12 10 9 9 8 8 7 5 4 5 6 7
13 12 11 15 19 19 21 22 23 24 24 23 22 21 22 24 24 23 22 20 19 18 18 18 16 14 12 12 12 13 14 14 13 10 9 9 8 8 7 5 5 5 3 2 2 2 2 3 2 0 1 1 1 1 5 9 9 9 9 9 12 12 11 10 9 9 10 11 12 11 10 11 12 11 9 9 8 8 8 7 6 5 5 5 6
15 16 14 15 20 22 22 23 25 25 25 24 24 23 25 27 26 25 23 21 20 19 18 17 15 13 12 12 13 13 13 13 11 10 10 9 9 9 9 8 6 7 6 5 4 4 4 3 2 1 0 1 3 5 8 11 10 9 11 12 13 13 11 11 10 9 10 11 11 10 10 10 11 10 10 10 8 8 7 6 6 6 5 4 5
19 22 21 19 21 24 24 24 25 25 24 24 26 25 27 28 27 27 24 22 21 20 19 17 15 14 13 13 13 12 12 11 9 10 11 9 10 10 10 9 7 8 8 6 6 5 5 4 3 3 2 4 5 7 11 12 11 13 15 14 13 13 12 12 11 10 10 10 10 10 10 9 9 9 9 10 9 8 6 4 5 7 5 3 3
23 23 23 21 21 24 24 23 23 23 23 24 27 27 27 29 28 27 25 23 22 19 17 15 14 15 14 13 13 12 11 10 8 9 10 9 9 10 9 8 7 7 7 6 5 5 5 5 4 4 4 6 7 9 12 13 14 15 15 14 13 12 12 12 13 12 10 10 10 10 10 9 8 7 6 8 9 9 7 4 5 7 6 3 3
26 24 23 23 22 21 21 22 22 23 23 24 27 27 27 28 27 26 24 23 21 18 16 14 15 16 14 13 12 11 11 9 7 8 10 9 10 10 9 8 6 6 7 7 5 5 5 6 7 6 7 8 8 11 13 14 14 14 13 13 13 12 12 14 14 11 11 11 11 10 10 9 8 7 6 6 8 8 8 7 6 7 6 4 3
24 24 23 24 23 21 21 20 21 22 23 25 28 27 27 27 26 24 22 22 21 19 17 15 15 15 13 12 11 9 9 9 7 7 9 10 10 10 9 7 5 5 6 7 6 5 5 7 9 9 10 10 11 14 14 13 13 13 13 13 13 13 14 15 12 9 9 10 11 10 9 9 8 8 8 8 9 8 8 7 6 6 5 5 4
24 23 22 23 22 22 20 19 21 24 23 25 27 25 25 26 25 23 21 19 19 18 15 13 14 13 12 11 10 8 8 8 8 7 8 9 9 9 8 6 5 5 6 7 7 5 5 8 8 9 12 14 16 17 16 16 16 15 15 14 14 15 15 14 9 8 8 8 9 9 9 8 8 9 9 9 9 8 8 7 5 5 6 6 5
24 24 24 24 24 23 22 22 23 25 25 27 26 25 25 25 23 21 19 17 16 15 13 12 12 11 11 10 9 8 7 7 8 8 8 8 9 8 7 6 5 5 6 8 8 6 7 8 9 11 14 18 19 20 19 18 18 17 16 14 14 14 14 12 7 6 7 7 7 9 9 9 8 9 9 9 8 7 7 6 5 5 6 6 5
25 25 25 25 26 25 25 26 24 25 27 28 26 24 23 22 20 19 18 17 15 13 13 12 10 10 10 10 8 8 8 8 8 8 8 8 9 8 7 6 6 6 7 9 9 9 8 9 12 14 16 19 20 20 20 18 19 17 15 13 12 13 12 10 6 5 5 5 5 6 7 7 8 8 8 7 6 6 5 4 4 4 5 5 5
27 26 25 25 26 26 27 26 24 27 28 27 26 24 22 22 20 19 17 15 13 13 13 12 11 10 11 10 9 8 8 8 8 8 8 8 8 8 7 6 6 7 8 9 10 10 9 10 13 15 16 17 18 19 19 18 18 17 15 14 12 13 12 9 6 6 6 6 5 5 5 7 8 8 7 6 6 4 4 4 4 4 4 4 5
28 27 26 26 27 27 27 25 25 27 27 27 26 25 24 22 20 18 16 15 14 13 12 11 11 11 11 9 8 8 8 7 7 8 8 8 8 7 7 7 7 8 9 9 10 9 10 11 13 15 17 17 16 17 18 18 18 17 15 14 12 12 12 9 8 7 7 7 6 7 7 7 7 7 7 6 5 5 5 5 3 2 2 2 2
27 27 27 27 28 29 29 28 27 28 29 29 29 28 27 24 22 20 18 16 15 13 12 12 11 11 11 9 8 8 8 8 8 8 8 8 8 7 7 8 8 9 9 10 10 9 10 12 14 15 16 17 16 15 16 18 17 15 14 13 12 11 11 10 8 5 5 6 7 9 9 7 6 6 7 7 6 5 6 5 3 2 1 1 2
27 27 27 28 28 29 30 30 29 30 31 32 31 29 27 26 24 22 20 18 16 15 14 13 12 11 11 9 8 8 8 8 8 8 8 8 9 9 9 9 10 10 10 11 11 11 12 12 14 15 15 15 16 16 17 15 12 12 12 11 9 8 9 10 8 5 6 8 8 9 9 8 7 7 8 7 6 4 4 4 3 3 1 1 2
27 27 28 28 28 29 30 30 31 32 32 31 29 27 26 24 23 22 20 18 16 15 14 13 12 11 10 9 8 7 7 8 7 7 7 7 9 10 10 10 11 12 12 12 11 11 13 13 14 16 15 15 15 17 16 11 10 13 12 6 3 4 5 6 9 8 7 9 10 10 9 9 9 9 9 7 5 5 5 4 3 3 2 2 4
26 27 27 28 28 29 30 30 31 32 31 30 27 25 24 21 20 20 19 18 17 16 15 14 13 11 11 9 8 7 7 7 6 6 6 7 8 10 11 11 12 12 12 13 13 12 13 13 14 15 16 16 14 15 14 10 14 15 8 3 2 3 2 3 8 8 7 9 10 10 9 9 10 10 9 8 7 7 6 5 4 4 4 4 6
26 28 29 29 29 29 30 29 30 30 30 28 25 24 23 22 22 21 21 20 20 20 18 16 14 13 12 11 9 8 8 7 7 7 6 6 7 8 9 10 10 11 10 11 13 13 13 14 15 15 16 16 14 15 12 10 14 13 6 5 3 1 2 4 7 8 7 10 11 11 10 10 11 11 11 11 11 10 8 8 7 6 6 6 6
27 29 31 30 29 29 29 29 29 28 27 25 24 24 25 26 28 27 25 23 22 21 21 19 17 15 15 14 14 12 11 10 9 9 8 7 7 7 7 8 8 9 9 10 12 13 13 14 15 14 14 15 15 16 14 11 13 10 7 7 3 2 6 7 5 4 6 9 11 12 9 10 11 11 13 15 14 13 11 10 9 8 7 7 6
27 29 28 28 28 29 28 28 28 27 26 26 26 27 28 30 32 31 29 27 24 22 21 19 18 17 17 17 16 15 14 13 12 11 10 9 8 7 7 8 7 8 10 11 12 12 13 13 13 12 12 13 16 17 16 14 13 10 7 5 2 5 11 10 7 4 4 5 9 14 11 9 11 12 15 17 15 13 11 11 9 8 7 7 8
28 28 27 27 28 28 27 27 27 27 27 27 28 31 32 32 31 29 28 27 25 23 21 18 17 17 17 17 16 15 13 13 13 12 10 9 8 7 6 6 7 9 11 11 12 11 12 12 11 10 10 11 14 16 17 16 14 11 8 5 2 7 12 12 13 12 7 3 6 10 10 11 11 13 16 16 13 11 10 10 8 7 8 9 9
29 28 28 27 27 28 27 26 27 28 28 28 29 30 30 29 28 26 26 25 24 23 21 18 17 17 16 16 15 14 12 12 12 11 10 9 8 7 6 5 6 8 10 12 12 11 11 11 10 10 9 11 12 12 14 17 16 14 11 7 6 11 12 12 16 16 11 6 4 4 8 12 11 12 16 15 12 10 10 10 8 8 9 9 10
28 28 27 26 26 27 26 25 28 29 27 26 26 25 26 27 27 26 27 27 26 23 20 18 17 16 16 16 15 14 13 12 12 11 11 10 9 8 5 4 6 8 9 11 12 11 11 10 9 9 9 10 11 10 11 14 16 15 14 11 10 13 13 10 12 14 12 8 5 5 10 13 10 11 16 15 12 12 12 10 8 9 9 9 10
25 26 26 25 26 26 25 25 26 27 25 23 21 21 24 26 26 26 27 27 25 22 20 18 17 18 18 16 15 14 13 13 13 12 10 10 9 8 5 4 8 11 9 8 10 11 11 10 9 9 10 10 10 10 9 11 15 14 14 14 14 16 15 12 14 16 12 9 7 6 9 13 12 12 15 16 14 14 12 9 9 9 9 9 10
Wind_Direction
169 161 160 164 162 160 158 155 152 151 148 147 145 143 140 136 134 131 127 124 120 117 118 120 120 117 114 114 112 111 109 107 105 103 101 99 97 94 94 97 101 98 91 93 95 92 92 91 91 89 86 89 93 94 94 92 91 94 94 94 96 91 87 85 82 84 85 83 84 80 77 79 81 84 84 82 76 72 75 79 80 78 77 77 75
166 160 160 164 163 162 160 156 153 151 149 148 147 145 141 138 135 130 128 125 122 118 118 119 119 119 116 115 113 110 108 105 102 100 100 100 99 98 98 100 101 95 90 94 96 93 93 92 90 90 89 90 94 96 96 95 93 94 95 96 97 91 88 89 84 82 84 84 84 82 80 80 82 84 85 84 78 73 74 78 78 76 77 77 74
158 158 160 162 163 163 161 157 155 152 151 150 149 146 143 140 136 132 130 127 123 120 119 119 119 120 119 118 115 112 107 104 101 101 103 104 104 103 103 102 102 97 94 98 98 96 95 94 92 92 93 94 95 96 95 97 98 98 100 99 98 96 91 88 87 84 83 86 87 85 83 82 83 84 87 87 81 75 74 76 76 74 75 74 72
156 157 159 162 165 164 162 159 156 154 153 152 151 148 145 142 138 135 131 127 124 122 122 120 120 121 121 120 117 113 107 104 103 105 107 108 109 105 104 103 103 100 97 100 98 97 97 97 96 95 96 97 98 98 99 100 100 101 104 103 102 102 95 86 83 81 82 86 90 89 87 86 84 85 87 87 83 80 77 75 76 76 74 73 72
155 155 159 162 165 163 163 160 158 156 155 154 153 149 146 144 140 136 131 128 125 124 124 123 123 122 122 120 117 113 110 107 107 110 111 111 111 105 103 105 105 104 102 102 98 97 101 100 96 97 98 98 99 101 104 102 103 104 105 109 110 110 105 93 78 77 83 86 90 91 91 89 86 85 86 86 85 85 81 77 77 77 75 74 74
155 155 158 161 163 163 163 162 160 158 157 156 154 150 148 146 141 136 132 130 127 126 127 126 125 124 122 120 117 116 114 113 113 113 112 113 114 110 108 110 109 107 106 104 101 99 101 100 97 102 105 106 104 103 106 106 106 104 104 112 116 121 125 120 88 81 91 93 94 93 91 90 88 85 85 88 89 88 84 81 79 78 76 74 74
154 155 158 162 163 163 164 164 162 159 157 157 155 152 150 147 142 135 133 131 129 130 130 128 127 125 124 122 120 121 119 116 116 114 113 114 114 113 112 114 112 109 109 106 103 101 99 97 98 108 114 117 117 114 114 114 110 106 106 108 115 125 129 133 107 92 101 103 102 98 94 93 90 88 87 88 90 89 85 84 84 82 79 76 74
153 155 160 163 164 165 166 165 163 161 158 158 157 153 152 149 143 136 135 133 131 132 131 129 127 126 126 126 124 123 123 119 118 116 116 116 116 116 114 114 113 112 111 110 107 105 101 92 94 111 120 123 124 123 123 120 113 109 106 102 99 102 111 135 127 113 113 107 104 102 100 98 93 92 90 88 88 88 86 87 88 86 83 79 76
153 157 162 165 165 167 168 167 164 162 160 159 158 156 154 151 145 139 138 136 133 133 130 128 126 127 126 126 124 124 126 124 122 120 121 122 123 122 119 118 118 118 117 117 114 109 104 87 87 111 125 126 127 126 124 120 114 108 101 93 80 82 100 130 136 129 119 109 104 103 101 96 93 94 93 91 90 88 87 88 89 89 87 84 81
156 160 164 166 167 169 169 168 165 163 161 161 160 158 156 153 147 141 139 137 135 133 130 128 126 126 125 126 124 125 128 129 127 125 127 128 126 124 122 124 124 124 123 124 120 111 104 86 87 112 127 127 128 127 125 120 113 105 95 83 77 93 110 121 130 128 118 111 105 99 97 93 94 96 93 91 91 91 90 89 90 91 90 90 88
158 162 165 167 167 170 170 169 166 164 163 163 162 159 158 155 150 143 139 138 137 134 130 128 126 124 124 125 125 125 130 133 131 130 132 132 129 126 125 126 125 124 125 126 121 112 103 89 94 116 128 128 128 128 126 121 112 102 91 78 84 109 119 122 124 120 115 110 103 100 97 92 96 99 95 93 91 91 91 91 91 91 90 90 88
159 162 164 167 168 171 171 169 167 165 165 165 164 161 159 156 151 144 139 140 138 135 131 128 125 124 124 124 123 124 128 131 132 133 135 136 133 130 128 128 128 127 128 126 119 113 103 92 100 122 131 130 130 130 127 121 111 100 88 76 91 120 126 126 122 116 114 107 102 102 99 93 97 101 95 94 93 91 90 91 92 91 90 90 90
159 162 165 166 168 172 172 170 167 166 167 166 166 162 159 157 152 146 141 142 140 135 130 126 126 125 125 124 124 123 126 126 126 128 130 136 136 133 132 131 132 131 130 126 120 110 101 92 104 127 134 134 133 131 128 119 110 98 83 75 97 128 132 129 121 115 112 106 103 102 100 96 98 101 97 95 95 94 93 93 92 92 91 93 97
160 162 164 166 169 172 173 171 168 168 168 167 167 163 159 158 154 149 144 143 140 135 131 128 127 126 126 127 128 127 126 122 120 120 122 129 133 134 134 133 132 132 132 128 122 110 103 94 104 130 136 135 135 131 126 119 109 95 80 75 102 133 136 129 120 114 111 106 104 104 102 98 98 101 98 97 96 95 97 95 92 92 89 91 94
161 162 164 167 168 170 172 170 169 168 169 168 166 163 160 159 156 151 144 143 140 136 133 131 130 128 129 130 131 131 129 124 120 119 120 123 128 132 133 133 131 129 128 123 122 114 110 101 100 128 139 137 135 132 125 120 109 92 80 74 105 136 140 133 122 115 112 107 105 106 105 102 102 100 97 97 98 97 97 96 92 91 90 89 91
163 164 164 166 166 167 169 168 168 168 169 168 165 163 160 159 155 149 144 143 139 136 134 133 132 131 131 130 132 134 132 129 124 122 122 124 127 129 129 129 128 125 123 119 119 115 113 108 100 121 138 138 133 131 127 123 110 93 79 70 108 140 143 136 125 118 113 107 104 106 107 107 107 105 100 96 101 101 99 99 95 94 93 90 89
163 164 163 162 164 164 165 165 166 167 167 166 164 161 160 158 153 148 144 143 139 136 134 133 132 132 133 132 134 137 137 135 130 126 124 125 126 126 127 126 126 123 121 119 116 111 112 114 110 117 134 140 135 129 128 126 114 98 79 72 110 142 143 134 123 117 111 104 102 104 107 111 111 109 104 98 102 104 100 100 100 98 95 93 90
161 163 162 159 161 161 162 162 163 163 164 163 162 160 158 156 152 148 145 142 138 135 133 131 130 131 133 133 134 138 142 140 136 132 127 125 123 125 126 123 123 121 118 119 114 108 108 109 114 116 129 142 142 133 131 130 120 103 80 78 114 141 141 130 120 116 110 104 102 103 107 113 116 111 106 101 100 103 104 103 103 102 99 99 96
155 159 157 156 157 158 159 160 162 161 162 161 160 158 156 154 150 148 144 141 139 134 133 132 130 130 132 134 133 136 140 141 140 138 133 128 124 127 128 119 114 112 111 113 112 106 103 100 105 114 124 138 147 141 136 137 127 106 80 77 117 139 140 131 120 117 111 105 104 106 109 114 117 115 113 107 97 98 101 100 102 106 105 103 99
150 154 152 154 155 156 158 160 162 160 160 159 158 155 152 152 149 147 144 142 139 135 136 135 134 131 132 133 132 135 136 139 142 142 138 132 128 131 127 114 108 108 108 109 110 105 103 105 104 117 125 133 144 146 140 141 131 109 79 71 122 143 142 134 122 117 112 108 110 113 114 115 118 117 116 113 102 93 90 88 93 100 101 100 97
146 151 151 154 155 157 159 158 160 160 160 158 155 151 149 150 147 146 144 143 140 140 140 138 138 135 135 134 135 137 137 139 141 143 140 134 132 131 123 113 111 110 108 106 103 99 99 110 119 130 138 135 137 142 143 144 132 110 77 71 129 150 146 135 123 117 114 111 112 115 118 119 119 118 117 115 108 99 86 80 84 91 97 98 96
144 150 153 156 156 158 159 158 159 160 159 157 153 150 150 150 146 145 144 145 145 146 145 142 142 140 140 139 140 141 140 141 140 142 140 135 134 132 126 118 114 110 109 107 103 102 99 103 116 134 150 147 139 140 143 146 134 106 74 83 134 149 145 133 123 118 114 112 113 115 120 121 122 120 119 119 116 111 92 79 83 89 98 102 100
144 151 156 158 158 159 159 159 160 161 159 155 152 150 151 147 145 147 147 150 151 150 148 147 146 143 142 141 142 140 139 139 136 139 137 135 137 136 132 125 120 113 110 111 109 103 97 97 101 113 147 154 144 138 142 147 136 106 78 99 136 146 143 134 124 119 116 114 117 118 118 120 124 123 123 124 122 116 97 82 84 93 103 105 104
149 154 157 160 162 161 161 162 162 162 157 151 149 149 148 145 147 153 153 153 151 151 151 150 150 146 143 143 142 139 138 135 134 139 140 142 143 140 134 128 127 118 113 116 112 100 94 95 92 105 142 152 142 132 138 145 136 105 83 108 139 148 144 136 127 121 120 119 123 126 125 126 126 125 127 128 124 117 98 80 84 96 104 105 104
153 156 157 161 164 164 164 164 164 162 154 149 149 146 146 147 152 156 153 151 151 154 154 153 154 151 148 147 145 141 140 139 142 148 150 151 147 140 132 127 123 114 114 118 115 104 98 98 93 101 128 137 125 113 123 139 137 81 89 119 146 155 150 141 132 125 124 126 133 138 140 138 131 130 137 134 127 120 97 77 90 97 94 100 106
155 157 159 164 167 166 165 163 161 158 153 152 150 145 147 151 154 155 151 150 157 158 156 159 159 156 153 152 149 144 144 147 153 157 154 152 144 135 130 126 123 115 114 117 114 105 101 101 97 97 106 113 107 86 50 158 209 310 104 134 155 162 158 147 137 128 128 132 137 139 143 142 135 136 145 136 130 122 97 87 105 99 86 93 105
158 160 162 165 167 168 167 162 156 155 157 157 153 150 155 158 157 158 158 158 164 163 160 164 164 162 159 157 156 153 156 162 166 161 154 150 142 138 137 131 130 126 121 119 114 108 112 112 108 100 91 83 307 253 249 236 253 267 192 151 164 167 161 150 139 132 133 135 135 132 133 135 136 139 138 134 128 114 99 108 121 105 84 85 101
167 163 164 164 165 166 167 161 155 158 159 158 157 157 164 169 166 165 165 164 167 168 165 166 167 166 164 164 166 168 170 173 172 164 156 152 148 146 146 142 138 133 126 124 119 119 135 133 124 104 53 345 305 272 218 213 233 218 176 159 165 169 159 146 138 135 139 139 136 133 128 128 135 138 135 134 124 112 112 121 134 115 88 81 96
171 164 162 160 161 163 167 161 156 158 156 156 161 162 166 172 171 170 169 167 170 173 170 169 170 169 169 175 178 178 180 180 175 169 163 158 157 158 154 150 149 145 135 134 137 139 159 155 143 104 27 350 335 304 181 169 152 137 153 163 166 166 152 142 139 140 144 144 142 142 140 133 134 137 137 138 131 129 128 125 139 132 106 92 95
153 152 153 157 163 169 171 166 160 158 155 157 163 168 171 172 173 174 170 168 171 174 174 173 173 171 174 185 187 187 189 186 179 177 175 169 169 170 166 166 178 185 187 195 194 205 205 187 178 92 4 347 51 144 163 162 156 144 152 165 165 159 146 139 137 140 145 148 150 151 152 143 139 142 143 144 140 140 134 121 134 145 131 110 100
145 154 164 171 176 182 178 174 171 164 159 163 171 175 175 175 176 176 173 169 170 174 178 177 176 179 184 187 189 191 193 189 184 184 182 180 183 184 184 186 196 204 211 227 232 242 232 215 213 154 123 183 146 152 171 169 159 152 160 166 163 157 145 135 129 135 145 151 155 156 159 154 150 154 154 153 144 140 139 116 122 149 157 133 107
160 171 177 181 182 186 182 176 175 167 163 171 176 175 175 177 178 177 174 170 172 176 178 178 179 185 189 186 186 189 190 188 186 186 183 185 191 196 201 203 204 204 208 221 229 237 233 216 186 153 150 174 158 158 174 172 155 150 159 165 166 161 148 134 127 133 145 150 154 156 159 162 164 168 167 164 152 143 148 112 105 136 154 147 112
172 178 176 177 180 187 186 180 177 173 172 179 178 173 174 178 179 177 175 174 177 176 172 175 182 188 186 182 186 186 185 187 183 183 184 187 192 196 204 204 199 197 202 206 211 222 225 215 187 163 162 172 167 161 166 167 160 153 153 161 168 165 153 139 130 132 145 151 152 153 157 167 169 169 170 172 159 145 151 145 124 135 142 145 122
174 170 167 174 180 186 185 179 179 174 171 177 177 172 174 178 179 178 178 180 178 171 171 177 183 192 190 184 190 187 183 186 181 180 181 181 183 187 187 182 179 186 192 193 197 203 206 208 194 166 158 167 162 158 159 158 156 150 149 160 163 161 155 138 130 142 161 156 150 155 159 164 163 153 152 161 162 152 153 158 150 152 153 155 145
165 158 162 173 178 181 181 179 180 172 164 168 170 169 173 177 178 175 172 177 177 174 178 181 184 193 193 188 193 193 188 187 183 179 178 178 176 177 175 168 168 177 184 183 185 195 197 196 186 162 152 155 149 148 155 153 146 145 155 163 159 158 148 132 137 169 176 156 151 161 160 159 159 151 148 152 163 165 164 168 167 172 173 175 178
158 152 158 167 173 180 181 176 176 175 170 170 170 170 174 175 176 172 167 173 178 176 177 182 186 192 193 192 196 201 199 192 188 178 175 180 178 174 171 170 174 173 176 174 172 187 191 175 168 163 155 149 146 144 148 149 145 146 152 153 152 153 141 134 158 187 174 159 158 166 162 157 160 158 155 155 163 170 175 184 188 188 190 192 194
156 154 159 166 171 174 171 163 166 172 171 172 172 169 172 173 173 171 170 175 179 177 178 185 188 187 189 193 195 202 208 203 194 181 179 185 184 178 172 176 182 175 169 167 167 174 178 163 150 159 158 148 146 143 142 145 144 143 143 140 140 143 140 142 159 173 174 176 169 169 168 165 167 162 157 157 162 168 176 187 194 197 203 213 225
153 156 160 163 167 167 165 165 166 167 165 167 168 166 166 168 170 171 172 173 174 175 179 184 183 179 184 192 195 194 199 208 203 192 191 191 190 185 181 182 182 179 171 166 165 163 168 168 152 153 156 150 147 143 139 140 138 136 133 131 132 132 138 143 138 147 163 162 161 170 172 173 174 167 158 157 158 164 176 189 203 213 218 226 245
154 156 157 159 162 164 164 166 167 164 162 163 164 162 161 164 167 169 171 171 171 175 179 183 183 182 187 190 188 183 193 207 205 203 203 200 197 191 189 189 182 181 177 170 168 162 166 175 160 151 150 149 149 145 139 137 134 132 129 126 127 128 136 141 126 129 133 129 139 152 155 159 167 171 168 167 165 169 187 198 213 229 234 240 257
157 157 158 159 158 159 159 158 160 161 161 162 161 160 162 166 169 172 175 174 172 174 178 183 185 186 188 186 181 182 195 200 194 200 206 205 203 202 201 197 189 185 180 176 172 167 169 173 163 152 147 143 145 144 140 138 131 125 124 124 124 124 131 133 126 129 125 122 128 132 138 141 149 163 165 169 178 191 203 211 227 225 225 258 286
156 157 160 159 156 157 157 155 155 157 158 159 159 161 166 170 174 177 178 175 175 175 177 183 187 186 183 182 183 183 186 185 187 195 200 201 198 200 201 194 188 181 176 173 169 166 166 165 159 152 149 144 144 145 143 140 129 118 116 116 116 117 123 129 133 143 133 124 126 128 135 135 129 142 149 154 166 187 205 213 212 172 133 356 -0
155 158 161 160 158 158 158 158 158 159 159 159 161 165 169 172 175 178 177 174 173 170 168 172 177 176 172 171 171 173 177 178 184 191 193 194 189 188 190 186 180 171 163 164 166 166 164 164 160 153 150 146 146 150 150 144 132 126 122 111 101 100 113 124 122 132 140 130 127 128 127 123 109 110 129 141 150 166 174 175 176 162 131 48 43
156 159 162 162 161 159 159 161 163 165 164 163 165 167 171 172 171 170 168 167 165 161 158 158 161 158 151 148 150 161 176 177 178 185 189 187 186 187 183 178 178 172 164 166 173 172 165 166 167 162 155 148 148 155 159 155 144 136 123 110 101 88 94 105 97 105 142 140 130 130 122 112 106 102 111 118 127 140 136 138 157 151 119 67 45
159 163 164 163 163 163 162 162 165 167 167 167 168 167 168 168 164 160 155 154 154 153 149 145 147 144 136 136 138 146 161 168 167 170 179 177 179 188 183 174 176 177 172 173 181 180 172 172 174 173 167 158 154 160 168 167 156 148 121 93 110 90 96 109 84 85 138 154 139 132 125 114 111 105 101 102 114 130 133 140 148 126 91 50 27
164 167 167 165 165 166 165 165 166 167 167 168 167 164 163 163 160 155 151 149 147 146 144 143 143 139 134 133 132 136 140 145 150 152 162 166 168 180 182 176 176 181 181 182 186 183 179 182 181 183 184 177 170 167 174 174 165 164 146 128 109 73 202 151 95 74 115 155 155 138 123 114 111 101 94 98 111 122 127 133 127 101 76 46 27
171 171 169 167 166 166 167 169 168 168 167 165 163 164 163 159 156 154 153 149 146 147 145 143 142 135 129 125 121 121 121 123 131 136 140 145 151 157 163 168 176 185 185 184 187 182 181 186 185 187 193 193 186 176 175 176 174 174 160 154 145 178 178 145 112 72 94 134 153 146 127 115 113 103 99 103 113 120 121 119 111 97 77 53 46
174 172 171 169 169 169 169 171 172 169 165 160 160 160 156 152 152 154 154 151 149 149 143 137 135 131 126 121 118 117 114 113 113 116 119 119 126 132 140 152 163 177 182 183 186 184 183 185 184 189 193 195 193 185 182 180 178 177 165 162 169 167 163 148 140 139 97 98 131 140 142 134 124 113 111 115 118 120 118 113 103 92 74 58 62
174 172 172 173 174 172 170 172 171 166 161 156 155 154 151 150 152 153 153 151 147 145 141 138 136 132 126 123 122 120 116 112 109 108 109 105 109 115 124 145 162 174 182 187 187 186 189 189 185 191 195 198 199 195 193 189 185 182 167 157 164 154 153 149 142 133 121 87 107 130 146 149 139 125 123 125 126 120 110 108 98 82 72 69 75
175 174 174 175 176 173 169 169 167 163 159 155 154 155 155 154 152 147 144 143 141 140 140 141 142 137 131 127 128 128 128 129 125 119 113 107 108 111 115 137 162 176 183 186 187 185 189 190 187 191 198 199 200 202 204 199 195 192 180 167 159 145 139 143 141 129 123 127 121 133 145 143 138 133 134 132 131 127 114 108 95 78 77 80 85
176 175 175 175 174 172 170 166 163 161 160 160 160 160 157 153 147 142 139 137 138 140 141 141 143 142 138 136 133 130 130 136 138 131 123 116 113 113 115 138 157 165 172 179 185 187 186 183 181 185 189 189 188 192 206 205 200 198 192 179 164 151 139 139 145 136 125 122 131 152 149 141 126 127 141 143 139 136 125 115 95 79 83 89 93
174 174 174 173 171 170 168 162 160 161 162 164 162 158 155 151 146 142 140 139 140 141 139 139 143 144 144 142 137 130 125 129 135 135 133 131 127 123 120 143 160 161 160 166 175 181 184 183 180 179 178 179 178 179 195 204 200 200 198 191 180 171 163 160 160 151 141 131 132 145 148 140 120 118 141 148 143 141 132 119 97 82 88 96 97